Location: Unspecified
(32.5099°N, 80.0190°W)
Time: 05:55:32
(UTC-05:00)

CZ-3 Stage 3 - Visible Passes

Search period start: 30 January 2015 00:00
Search period end: 09 February 2015 00:00
Orbit: 436 x 34794 km, 31.1° (Epoch: 28 January)

Date Brightness Start Highest point End Pass type
(mag) Time Alt. Az. Time Alt. Az. Time Alt. Az.
31 Jan 7.9 16:41:24 10° SW 01:25:47 44° W 01:25:47 44° W visible
01 Feb 7.5 13:02:20 10° S 21:23:50 88° S 21:59:19 66° E visible
03 Feb 7.8 16:36:43 10° SW 01:22:41 43° W 01:22:41 43° W visible
04 Feb 7.4 12:56:40 10° S 21:22:06 88° S 21:56:10 65° E visible
06 Feb 7.8 16:32:03 10° SW 01:19:28 43° W 01:19:28 43° W visible
07 Feb 7.4 12:51:04 10° S 21:20:07 88° S 21:52:54 64° E visible
